owner,sensor,date,latitude,longitude,vertical_datum,mass_concentration_of_oxygen_in_sea_water,qcFlag 
DISL,ioos:station:DISL:DISL:1,2018-11-01T03:30:00Z,30.2513,-88.0778,1.999,7.2,1111122 
DISL,ioos:station:DISL:DISL:1,2018-11-01T04:30:00Z,30.2513,-88.0778,2.056,7.09,1111122 
DISL,ioos:station:DISL:DISL:1,2018-11-01T05:30:00Z,30.2513,-88.0778,2.098,6.92,1111122 
DISL,ioos:station:DISL:DISL:1,2018-11-01T06:30:00Z,30.2513,-88.0778,2.159,6.79,1111122 
DISL,ioos:station:DISL:DISL:1,2018-11-01T07:30:00Z,30.2513,-88.0778,2.208,6.78,1111122 
DISL,ioos:station:DISL:DISL:1,2018-11-01T08:30:00Z,30.2513,-88.0778,2.256,6.72,1111122 
DISL,ioos:station:DISL:DISL:1,2018-11-01T09:30:00Z,30.2513,-88.0778,2.316,6.69,1111122 
DISL,ioos:station:DISL:DISL:1,2018-11-01T10:30:00Z,30.2513,-88.0778,2.347,6.65,1111122 
DISL,ioos:station:DISL:DISL:1,2018-11-01T11:30:00Z,30.2513,-88.0778,2.352,6.74,1111122 
DISL,ioos:station:DISL:DISL:1,2018-11-01T12:30:00Z,30.2513,-88.0778,2.338,6.77,1111122 
DISL,ioos:station:DISL:DISL:1,2018-11-01T13:30:00Z,30.2513,-88.0778,2.49,6.89,1111122 
DISL,ioos:station:DISL:DISL:1,2018-11-01T14:30:00Z,30.2513,-88.0778,2.351,6.98,1111122 
DISL,ioos:station:DISL:DISL:1,2018-11-01T15:30:00Z,30.2513,-88.0778,2.247,6.97,1111122 
DISL,ioos:station:DISL:DISL:1,2018-11-01T16:30:00Z,30.2513,-88.0778,2.091,6.86,1111122 
DISL,ioos:station:DISL:DISL:1,2018-11-01T17:30:00Z,30.2513,-88.0778,2.119,7.1,1111122 
DISL,ioos:station:DISL:DISL:1,2018-11-01T18:30:00Z,30.2513,-88.0778,2.058,7.2,1111122 
DISL,ioos:station:DISL:DISL:1,2018-11-01T19:30:00Z,30.2513,-88.0778,2.006,7.25,1111122 
DISL,ioos:station:DISL:DISL:1,2018-11-01T20:30:00Z,30.2513,-88.0778,1.962,7.19,1111122 
DISL,ioos:station:DISL:DISL:1,2018-11-01T21:30:00Z,30.2513,-88.0778,1.942,7.09,1111122 
DISL,ioos:station:DISL:DISL:1,2018-11-01T22:30:00Z,30.2513,-88.0778,1.891,7.1,1111122 
DISL,ioos:station:DISL:DISL:1,2018-11-01T23:30:00Z,30.2513,-88.0778,1.979,6.94,1111122 
DISL,ioos:station:DISL:DISL:1,2018-11-02T00:30:00Z,30.2513,-88.0778,1.987,6.78,1111122 
DISL,ioos:station:DISL:DISL:1,2018-11-02T01:30:00Z,30.2513,-88.0778,1.962,6.77,1111122 
DISL,ioos:station:DISL:DISL:1,2018-11-02T02:30:00Z,30.2513,-88.0778,2.031,6.72,1111122 
DISL,ioos:station:DISL:DISL:1,2018-11-02T03:30:00Z,30.2513,-88.0778,2.041,6.97,1111122 
DISL,ioos:station:DISL:DISL:1,2018-11-02T04:30:00Z,30.2513,-88.0778,2.14,6.94,1111122 
DISL,ioos:station:DISL:DISL:1,2018-11-02T05:30:00Z,30.2513,-88.0778,2.099,6.58,1111122 
DISL,ioos:station:DISL:DISL:1,2018-11-02T06:30:00Z,30.2513,-88.0778,2.151,6.71,1111122 
DISL,ioos:station:DISL:DISL:1,2018-11-02T07:30:00Z,30.2513,-88.0778,2.095,6.99,1111122 
DISL,ioos:station:DISL:DISL:1,2018-11-02T08:30:00Z,30.2513,-88.0778,2.124,6.7,1111122 
DISL,ioos:station:DISL:DISL:1,2018-11-02T09:30:00Z,30.2513,-88.0778,2.083,6.66,1111122 
DISL,ioos:station:DISL:DISL:1,2018-11-02T10:30:00Z,30.2513,-88.0778,2.107,6.94,1111122 
DISL,ioos:station:DISL:DISL:1,2018-11-02T11:30:00Z,30.2513,-88.0778,2.059,7.11,1111122 
DISL,ioos:station:DISL:DISL:1,2018-11-02T12:30:00Z,30.2513,-88.0778,2.05,7.0,1111122 
DISL,ioos:station:DISL:DISL:1,2018-11-02T13:30:00Z,30.2513,-88.0778,2.023,7.12,1111122 
DISL,ioos:station:DISL:DISL:1,2018-11-02T14:30:00Z,30.2513,-88.0778,1.988,7.15,1111122 
DISL,ioos:station:DISL:DISL:1,2018-11-02T15:30:00Z,30.2513,-88.0778,1.939,7.21,1111122 
DISL,ioos:station:DISL:DISL:1,2018-11-02T16:30:00Z,30.2513,-88.0778,1.906,7.29,1111122 
DISL,ioos:station:DISL:DISL:1,2018-11-02T17:30:00Z,30.2513,-88.0778,1.87,7.48,1111122 
DISL,ioos:station:DISL:DISL:1,2018-11-02T18:30:00Z,30.2513,-88.0778,1.829,7.57,1111122 
DISL,ioos:station:DISL:DISL:1,2018-11-02T19:30:00Z,30.2513,-88.0778,1.803,7.64,1111122 
DISL,ioos:station:DISL:DISL:1,2018-11-02T20:30:00Z,30.2513,-88.0778,1.782,7.76,1111122 
DISL,ioos:station:DISL:DISL:1,2018-11-02T21:30:00Z,30.2513,-88.0778,1.743,7.8,1111122 
DISL,ioos:station:DISL:DISL:1,2018-11-02T22:30:00Z,30.2513,-88.0778,1.724,7.87,1111122 
DISL,ioos:station:DISL:DISL:1,2018-11-02T23:30:00Z,30.2513,-88.0778,1.725,8.13,1111122 
DISL,ioos:station:DISL:DISL:1,2018-11-03T00:30:00Z,30.2513,-88.0778,1.752,8.02,1111122 
DISL,ioos:station:DISL:DISL:1,2018-11-03T01:30:00Z,30.2513,-88.0778,1.783,7.43,1111122 
DISL,ioos:station:DISL:DISL:1,2018-11-03T02:30:00Z,30.2513,-88.0778,1.813,7.75,1111122 
DISL,ioos:station:DISL:DISL:1,2018-11-03T03:30:00Z,30.2513,-88.0778,1.867,7.7,1111122 
DISL,ioos:station:DISL:DISL:1,2018-11-03T04:30:00Z,30.2513,-88.0778,1.876,7.73,1111122 
DISL,ioos:station:DISL:DISL:1,2018-11-03T05:30:00Z,30.2513,-88.0778,1.886,7.65,1111122 
DISL,ioos:station:DISL:DISL:1,2018-11-03T06:30:00Z,30.2513,-88.0778,1.915,7.62,1111122 
DISL,ioos:station:DISL:DISL:1,2018-11-03T07:30:00Z,30.2513,-88.0778,1.92,7.62,1111122 
DISL,ioos:station:DISL:DISL:1,2018-11-03T08:30:00Z,30.2513,-88.0778,1.914,7.56,1111122 
DISL,ioos:station:DISL:DISL:1,2018-11-03T09:30:00Z,30.2513,-88.0778,1.914,7.59,1111122 
DISL,ioos:station:DISL:DISL:1,2018-11-03T10:30:00Z,30.2513,-88.0778,1.924,7.52,1111122 
DISL,ioos:station:DISL:DISL:1,2018-11-03T11:30:00Z,30.2513,-88.0778,1.906,7.49,1111122 
DISL,ioos:station:DISL:DISL:1,2018-11-03T12:30:00Z,30.2513,-88.0778,1.909,7.38,1111122 
DISL,ioos:station:DISL:DISL:1,2018-11-03T13:30:00Z,30.2513,-88.0778,1.898,7.38,1111122 
DISL,ioos:station:DISL:DISL:1,2018-11-03T14:30:00Z,30.2513,-88.0778,1.891,7.42,1111122 
DISL,ioos:station:DISL:DISL:1,2018-11-03T15:30:00Z,30.2513,-88.0778,1.869,7.58,1111122 
DISL,ioos:station:DISL:DISL:1,2018-11-03T16:30:00Z,30.2513,-88.0778,1.832,7.67,1111122 
DISL,ioos:station:DISL:DISL:1,2018-11-03T17:30:00Z,30.2513,-88.0778,1.791,7.76,1111122 
DISL,ioos:station:DISL:DISL:1,2018-11-03T18:30:00Z,30.2513,-88.0778,1.764,9.35,1111122 
DISL,ioos:station:DISL:DISL:1,2018-11-03T19:30:00Z,30.2513,-88.0778,1.735,9.28,1111122 
DISL,ioos:station:DISL:DISL:1,2018-11-03T20:30:00Z,30.2513,-88.0778,1.713,9.18,1111122 
DISL,ioos:station:DISL:DISL:1,2018-11-03T21:30:00Z,30.2513,-88.0778,1.718,9.39,1111122 
DISL,ioos:station:DISL:DISL:1,2018-11-03T22:30:00Z,30.2513,-88.0778,1.729,9.18,1111122 
DISL,ioos:station:DISL:DISL:1,2018-11-03T23:30:00Z,30.2513,-88.0778,1.739,8.95,1111122 
DISL,ioos:station:DISL:DISL:1,2018-11-04T00:30:00Z,30.2513,-88.0778,1.759,8.14,1111122 
DISL,ioos:station:DISL:DISL:1,2018-11-04T01:30:00Z,30.2513,-88.0778,1.795,8.05,1111122 
DISL,ioos:station:DISL:DISL:1,2018-11-04T02:30:00Z,30.2513,-88.0778,1.814,7.94,1111122 
DISL,ioos:station:DISL:DISL:1,2018-11-04T03:30:00Z,30.2513,-88.0778,1.863,7.92,1111122 
DISL,ioos:station:DISL:DISL:1,2018-11-04T04:30:00Z,30.2513,-88.0778,1.87,7.88,1111122 
DISL,ioos:station:DISL:DISL:1,2018-11-04T05:30:00Z,30.2513,-88.0778,1.872,7.86,1111122 
DISL,ioos:station:DISL:DISL:1,2018-11-04T06:30:00Z,30.2513,-88.0778,1.879,7.92,1111122 
DISL,ioos:station:DISL:DISL:1,2018-11-04T08:30:00Z,30.2513,-88.0778,1.869,7.96,1111122 
DISL,ioos:station:DISL:DISL:1,2018-11-04T09:30:00Z,30.2513,-88.0778,1.871,7.87,1111122 
DISL,ioos:station:DISL:DISL:1,2018-11-04T10:30:00Z,30.2513,-88.0778,1.866,7.74,1111122 
DISL,ioos:station:DISL:DISL:1,2018-11-04T11:30:00Z,30.2513,-88.0778,1.877,7.76,1111122 
DISL,ioos:station:DISL:DISL:1,2018-11-04T12:30:00Z,30.2513,-88.0778,1.878,7.7,1111122 
DISL,ioos:station:DISL:DISL:1,2018-11-04T13:30:00Z,30.2513,-88.0778,1.867,7.77,1111122 
DISL,ioos:station:DISL:DISL:1,2018-11-04T14:30:00Z,30.2513,-88.0778,1.852,7.76,1111122 
DISL,ioos:station:DISL:DISL:1,2018-11-04T15:30:00Z,30.2513,-88.0778,1.863,8.02,1111122 
DISL,ioos:station:DISL:DISL:1,2018-11-04T16:30:00Z,30.2513,-88.0778,1.845,8.12,1111122 
DISL,ioos:station:DISL:DISL:1,2018-11-04T17:30:00Z,30.2513,-88.0778,1.828,8.15,1111122 
DISL,ioos:station:DISL:DISL:1,2018-11-04T18:30:00Z,30.2513,-88.0778,1.834,8.17,1111122 
DISL,ioos:station:DISL:DISL:1,2018-11-04T19:30:00Z,30.2513,-88.0778,1.818,8.25,1111122 
DISL,ioos:station:DISL:DISL:1,2018-11-04T20:30:00Z,30.2513,-88.0778,1.829,8.33,1111122 
DISL,ioos:station:DISL:DISL:1,2018-11-04T21:30:00Z,30.2513,-88.0778,1.846,8.41,1111122 
DISL,ioos:station:DISL:DISL:1,2018-11-04T22:30:00Z,30.2513,-88.0778,1.861,8.25,1111122 
DISL,ioos:station:DISL:DISL:1,2018-11-04T23:30:00Z,30.2513,-88.0778,1.889,7.55,1111122 
DISL,ioos:station:DISL:DISL:1,2018-11-05T00:30:00Z,30.2513,-88.0778,1.913,7.67,1111122 
DISL,ioos:station:DISL:DISL:1,2018-11-05T01:30:00Z,30.2513,-88.0778,1.943,7.56,1111122 
DISL,ioos:station:DISL:DISL:1,2018-11-05T02:30:00Z,30.2513,-88.0778,1.993,7.56,1111122 
DISL,ioos:station:DISL:DISL:1,2018-11-05T03:30:00Z,30.2513,-88.0778,2.002,7.52,1111122 
DISL,ioos:station:DISL:DISL:1,2018-11-05T04:30:00Z,30.2513,-88.0778,2.032,7.45,1111122 
DISL,ioos:station:DISL:DISL:1,2018-11-05T05:30:00Z,30.2513,-88.0778,1.978,7.8,1111122 
DISL,ioos:station:DISL:DISL:1,2018-11-05T06:30:00Z,30.2513,-88.0778,1.93,7.75,1111122 
DISL,ioos:station:DISL:DISL:1,2018-11-05T07:30:00Z,30.2513,-88.0778,1.926,7.6,1111122 
DISL,ioos:station:DISL:DISL:1,2018-11-05T08:30:00Z,30.2513,-88.0778,1.889,7.38,1111122 
DISL,ioos:station:DISL:DISL:1,2018-11-05T09:30:00Z,30.2513,-88.0778,1.868,7.47,1111122 
DISL,ioos:station:DISL:DISL:1,2018-11-05T10:30:00Z,30.2513,-88.0778,1.869,7.56,1111122 
DISL,ioos:station:DISL:DISL:1,2018-11-05T11:30:00Z,30.2513,-88.0778,1.86,7.65,1111122 
DISL,ioos:station:DISL:DISL:1,2018-11-05T12:30:00Z,30.2513,-88.0778,1.845,7.58,1111122 
DISL,ioos:station:DISL:DISL:1,2018-11-05T13:30:00Z,30.2513,-88.0778,1.866,6.53,1111122 
DISL,ioos:station:DISL:DISL:1,2018-11-05T14:30:00Z,30.2513,-88.0778,1.883,6.45,1111122 
DISL,ioos:station:DISL:DISL:1,2018-11-05T15:30:00Z,30.2513,-88.0778,1.905,6.43,1111122 
DISL,ioos:station:DISL:DISL:1,2018-11-05T16:30:00Z,30.2513,-88.0778,1.921,6.75,1111122 
DISL,ioos:station:DISL:DISL:1,2018-11-05T17:30:00Z,30.2513,-88.0778,1.933,6.87,1111122 
DISL,ioos:station:DISL:DISL:1,2018-11-05T18:30:00Z,30.2513,-88.0778,1.941,7.39,1111122 
DISL,ioos:station:DISL:DISL:1,2018-11-05T19:30:00Z,30.2513,-88.0778,1.946,7.35,1111122 
DISL,ioos:station:DISL:DISL:1,2018-11-05T20:30:00Z,30.2513,-88.0778,1.945,8.4,1111122 
DISL,ioos:station:DISL:DISL:1,2018-11-05T21:30:00Z,30.2513,-88.0778,1.969,9.29,1111122 
DISL,ioos:station:DISL:DISL:1,2018-11-05T22:30:00Z,30.2513,-88.0778,2.033,8.1,1111122 
DISL,ioos:station:DISL:DISL:1,2018-11-05T23:30:00Z,30.2513,-88.0778,2.011,7.09,1111122 
DISL,ioos:station:DISL:DISL:1,2018-11-06T00:30:00Z,30.2513,-88.0778,2.019,6.41,1111122 
DISL,ioos:station:DISL:DISL:1,2018-11-06T01:30:00Z,30.2513,-88.0778,2.03,6.55,1111122 
DISL,ioos:station:DISL:DISL:1,2018-11-06T02:30:00Z,30.2513,-88.0778,2.057,6.83,1111122 
DISL,ioos:station:DISL:DISL:1,2018-11-06T03:30:00Z,30.2513,-88.0778,2.065,6.78,1111122 
DISL,ioos:station:DISL:DISL:1,2018-11-06T04:30:00Z,30.2513,-88.0778,2.048,7.1,1111122 
DISL,ioos:station:DISL:DISL:1,2018-11-06T05:30:00Z,30.2513,-88.0778,2.021,7.08,1111122 
DISL,ioos:station:DISL:DISL:1,2018-11-06T06:30:00Z,30.2513,-88.0778,1.989,7.37,1111122 
DISL,ioos:station:DISL:DISL:1,2018-11-06T07:30:00Z,30.2513,-88.0778,1.94,7.39,1111122 
DISL,ioos:station:DISL:DISL:1,2018-11-06T08:30:00Z,30.2513,-88.0778,1.905,7.35,1111122 
DISL,ioos:station:DISL:DISL:1,2018-11-06T09:30:00Z,30.2513,-88.0778,1.876,7.66,1111122 
DISL,ioos:station:DISL:DISL:1,2018-11-06T10:30:00Z,30.2513,-88.0778,1.839,7.53,1111122 
DISL,ioos:station:DISL:DISL:1,2018-11-06T11:30:00Z,30.2513,-88.0778,1.848,7.38,1111122 
DISL,ioos:station:DISL:DISL:1,2018-11-06T12:30:00Z,30.2513,-88.0778,1.836,7.31,1111122 
DISL,ioos:station:DISL:DISL:1,2018-11-06T13:30:00Z,30.2513,-88.0778,1.812,7.0,1111122 
DISL,ioos:station:DISL:DISL:1,2018-11-06T14:30:00Z,30.2513,-88.0778,1.809,6.98,1111122 
DISL,ioos:station:DISL:DISL:1,2018-11-06T15:30:00Z,30.2513,-88.0778,1.819,7.06,1111122 
DISL,ioos:station:DISL:DISL:1,2018-11-06T16:30:00Z,30.2513,-88.0778,1.832,7.06,1111122 
DISL,ioos:station:DISL:DISL:1,2018-11-06T17:30:00Z,30.2513,-88.0778,1.873,7.12,1111122 
DISL,ioos:station:DISL:DISL:1,2018-11-06T18:30:00Z,30.2513,-88.0778,1.894,7.14,1111122 
DISL,ioos:station:DISL:DISL:1,2018-11-06T19:30:00Z,30.2513,-88.0778,1.906,7.2,1111122 
DISL,ioos:station:DISL:DISL:1,2018-11-06T20:30:00Z,30.2513,-88.0778,1.892,7.06,1111122 
DISL,ioos:station:DISL:DISL:1,2018-11-06T21:30:00Z,30.2513,-88.0778,1.981,7.53,1111122 
DISL,ioos:station:DISL:DISL:1,2018-11-06T22:30:00Z,30.2513,-88.0778,1.961,7.35,1111122 
DISL,ioos:station:DISL:DISL:1,2018-11-06T23:30:00Z,30.2513,-88.0778,1.976,8.26,1111122 
DISL,ioos:station:DISL:DISL:1,2018-11-07T00:30:00Z,30.2513,-88.0778,1.983,7.4,1111122 
DISL,ioos:station:DISL:DISL:1,2018-11-07T01:30:00Z,30.2513,-88.0778,1.983,7.09,1111122 
DISL,ioos:station:DISL:DISL:1,2018-11-07T02:30:00Z,30.2513,-88.0778,2.012,7.16,1111122 
DISL,ioos:station:DISL:DISL:1,2018-11-07T03:30:00Z,30.2513,-88.0778,2.034,7.27,1111122 
DISL,ioos:station:DISL:DISL:1,2018-11-07T04:30:00Z,30.2513,-88.0778,2.018,7.16,1111122 
DISL,ioos:station:DISL:DISL:1,2018-11-07T05:30:00Z,30.2513,-88.0778,2.004,7.06,1111122 
DISL,ioos:station:DISL:DISL:1,2018-11-07T06:30:00Z,30.2513,-88.0778,1.95,7.0,1111122 
DISL,ioos:station:DISL:DISL:1,2018-11-07T07:30:00Z,30.2513,-88.0778,1.89,7.04,1111122 
DISL,ioos:station:DISL:DISL:1,2018-11-07T08:30:00Z,30.2513,-88.0778,1.847,8.79,1111122 
DISL,ioos:station:DISL:DISL:1,2018-11-07T09:30:00Z,30.2513,-88.0778,1.813,8.78,1111122 
DISL,ioos:station:DISL:DISL:1,2018-11-07T10:30:00Z,30.2513,-88.0778,1.764,8.77,1111122 
DISL,ioos:station:DISL:DISL:1,2018-11-07T11:30:00Z,30.2513,-88.0778,1.75,8.78,1111122 
DISL,ioos:station:DISL:DISL:1,2018-11-07T12:30:00Z,30.2513,-88.0778,1.724,8.67,1111122 
DISL,ioos:station:DISL:DISL:1,2018-11-07T13:30:00Z,30.2513,-88.0778,1.728,8.61,1111122 
DISL,ioos:station:DISL:DISL:1,2018-11-07T14:30:00Z,30.2513,-88.0778,1.746,8.3,1111122 
DISL,ioos:station:DISL:DISL:1,2018-11-07T15:30:00Z,30.2513,-88.0778,1.767,7.34,1111122 
DISL,ioos:station:DISL:DISL:1,2018-11-07T16:30:00Z,30.2513,-88.0778,1.795,7.2,1111122 
DISL,ioos:station:DISL:DISL:1,2018-11-07T17:30:00Z,30.2513,-88.0778,1.846,7.4,1111122 
DISL,ioos:station:DISL:DISL:1,2018-11-07T18:30:00Z,30.2513,-88.0778,1.877,7.39,1111122 
DISL,ioos:station:DISL:DISL:1,2018-11-07T19:30:00Z,30.2513,-88.0778,1.922,7.53,1111122 
DISL,ioos:station:DISL:DISL:1,2018-11-07T20:30:00Z,30.2513,-88.0778,1.944,7.24,1111122 
DISL,ioos:station:DISL:DISL:1,2018-11-07T21:30:00Z,30.2513,-88.0778,1.987,6.79,1111122 
DISL,ioos:station:DISL:DISL:1,2018-11-07T22:30:00Z,30.2513,-88.0778,2.021,6.82,1111122 
DISL,ioos:station:DISL:DISL:1,2018-11-07T23:30:00Z,30.2513,-88.0778,2.07,6.88,1111122 
DISL,ioos:station:DISL:DISL:1,2018-11-08T00:30:00Z,30.2513,-88.0778,2.098,6.93,1111122 
DISL,ioos:station:DISL:DISL:1,2018-11-08T01:30:00Z,30.2513,-88.0778,2.117,6.71,1111122 
DISL,ioos:station:DISL:DISL:1,2018-11-08T02:30:00Z,30.2513,-88.0778,2.112,7.19,1111122 
DISL,ioos:station:DISL:DISL:1,2018-11-08T03:30:00Z,30.2513,-88.0778,2.116,7.12,1111122 
DISL,ioos:station:DISL:DISL:1,2018-11-08T04:30:00Z,30.2513,-88.0778,2.147,7.04,1111122 
DISL,ioos:station:DISL:DISL:1,2018-11-08T05:30:00Z,30.2513,-88.0778,2.102,7.1,1111122 
DISL,ioos:station:DISL:DISL:1,2018-11-08T06:30:00Z,30.2513,-88.0778,2.032,6.89,1111122 
DISL,ioos:station:DISL:DISL:1,2018-11-08T07:30:00Z,30.2513,-88.0778,1.957,6.86,1111122 
DISL,ioos:station:DISL:DISL:1,2018-11-08T08:30:00Z,30.2513,-88.0778,1.893,7.91,1111122 
DISL,ioos:station:DISL:DISL:1,2018-11-08T09:30:00Z,30.2513,-88.0778,1.843,8.42,1111122 
DISL,ioos:station:DISL:DISL:1,2018-11-08T10:30:00Z,30.2513,-88.0778,1.809,8.43,1111122 
DISL,ioos:station:DISL:DISL:1,2018-11-08T11:30:00Z,30.2513,-88.0778,1.767,8.44,1111122 
DISL,ioos:station:DISL:DISL:1,2018-11-08T12:30:00Z,30.2513,-88.0778,1.718,8.52,1111122 
DISL,ioos:station:DISL:DISL:1,2018-11-08T13:30:00Z,30.2513,-88.0778,1.708,8.51,1111122 
DISL,ioos:station:DISL:DISL:1,2018-11-08T14:30:00Z,30.2513,-88.0778,1.693,8.58,1111122 
DISL,ioos:station:DISL:DISL:1,2018-11-08T15:30:00Z,30.2513,-88.0778,1.669,8.74,1111122 
DISL,ioos:station:DISL:DISL:1,2018-11-08T16:30:00Z,30.2513,-88.0778,1.701,8.51,1111122 
DISL,ioos:station:DISL:DISL:1,2018-11-08T17:30:00Z,30.2513,-88.0778,1.734,8.07,1111122 
DISL,ioos:station:DISL:DISL:1,2018-11-08T18:30:00Z,30.2513,-88.0778,1.769,8.06,1111122 
DISL,ioos:station:DISL:DISL:1,2018-11-08T19:30:00Z,30.2513,-88.0778,1.806,7.8,1111122 
DISL,ioos:station:DISL:DISL:1,2018-11-08T20:30:00Z,30.2513,-88.0778,1.85,7.77,1111122 
DISL,ioos:station:DISL:DISL:1,2018-11-08T21:30:00Z,30.2513,-88.0778,1.904,7.76,1111122 
DISL,ioos:station:DISL:DISL:1,2018-11-08T22:30:00Z,30.2513,-88.0778,1.947,6.7,1111122 
DISL,ioos:station:DISL:DISL:1,2018-11-08T23:30:00Z,30.2513,-88.0778,2.0,6.44,1111122 
DISL,ioos:station:DISL:DISL:1,2018-11-09T00:30:00Z,30.2513,-88.0778,2.048,6.33,1111122 
DISL,ioos:station:DISL:DISL:1,2018-11-09T01:30:00Z,30.2513,-88.0778,2.083,6.2,1111122 
DISL,ioos:station:DISL:DISL:1,2018-11-09T02:30:00Z,30.2513,-88.0778,2.109,6.2,1111122 
DISL,ioos:station:DISL:DISL:1,2018-11-09T03:30:00Z,30.2513,-88.0778,2.14,7.23,1111122 
DISL,ioos:station:DISL:DISL:1,2018-11-09T04:30:00Z,30.2513,-88.0778,2.142,7.38,1111122 
DISL,ioos:station:DISL:DISL:1,2018-11-09T05:30:00Z,30.2513,-88.0778,2.112,7.44,1111122 
DISL,ioos:station:DISL:DISL:1,2018-11-09T06:30:00Z,30.2513,-88.0778,2.068,7.4,1111122 
DISL,ioos:station:DISL:DISL:1,2018-11-09T07:30:00Z,30.2513,-88.0778,2.027,7.32,1111122 
DISL,ioos:station:DISL:DISL:1,2018-11-09T08:30:00Z,30.2513,-88.0778,1.96,7.29,1111122 
DISL,ioos:station:DISL:DISL:1,2018-11-09T09:30:00Z,30.2513,-88.0778,1.905,8.47,1111122 
DISL,ioos:station:DISL:DISL:1,2018-11-09T10:30:00Z,30.2513,-88.0778,1.851,8.23,1111122 
DISL,ioos:station:DISL:DISL:1,2018-11-09T11:30:00Z,30.2513,-88.0778,1.794,8.04,1111122 
DISL,ioos:station:DISL:DISL:1,2018-11-09T12:30:00Z,30.2513,-88.0778,1.769,8.12,1111122 
DISL,ioos:station:DISL:DISL:1,2018-11-09T13:30:00Z,30.2513,-88.0778,1.73,8.14,1111122 
DISL,ioos:station:DISL:DISL:1,2018-11-09T14:30:00Z,30.2513,-88.0778,1.7,8.27,1111122 
DISL,ioos:station:DISL:DISL:1,2018-11-09T15:30:00Z,30.2513,-88.0778,1.691,8.28,1111122 
DISL,ioos:station:DISL:DISL:1,2018-11-09T16:30:00Z,30.2513,-88.0778,1.705,8.51,1111122 
DISL,ioos:station:DISL:DISL:1,2018-11-09T17:30:00Z,30.2513,-88.0778,1.718,8.36,1111122 
DISL,ioos:station:DISL:DISL:1,2018-11-09T18:30:00Z,30.2513,-88.0778,1.75,7.61,1111122 
DISL,ioos:station:DISL:DISL:1,2018-11-09T19:30:00Z,30.2513,-88.0778,1.791,7.46,1111122 
DISL,ioos:station:DISL:DISL:1,2018-11-09T20:30:00Z,30.2513,-88.0778,1.869,7.99,1111122 
DISL,ioos:station:DISL:DISL:1,2018-11-09T21:30:00Z,30.2513,-88.0778,1.913,7.92,1111122 
DISL,ioos:station:DISL:DISL:1,2018-11-09T22:30:00Z,30.2513,-88.0778,1.945,8.87,1111122 
DISL,ioos:station:DISL:DISL:1,2018-11-09T23:30:00Z,30.2513,-88.0778,1.88,8.59,1111122 
DISL,ioos:station:DISL:DISL:1,2018-11-10T00:30:00Z,30.2513,-88.0778,1.979,8.57,1111122 
DISL,ioos:station:DISL:DISL:1,2018-11-10T01:30:00Z,30.2513,-88.0778,1.992,8.32,1111122 
DISL,ioos:station:DISL:DISL:1,2018-11-10T02:30:00Z,30.2513,-88.0778,1.979,8.3,1111122 
DISL,ioos:station:DISL:DISL:1,2018-11-10T03:30:00Z,30.2513,-88.0778,1.928,8.32,1111122 
DISL,ioos:station:DISL:DISL:1,2018-11-10T04:30:00Z,30.2513,-88.0778,1.958,8.3,1111122 
DISL,ioos:station:DISL:DISL:1,2018-11-10T05:30:00Z,30.2513,-88.0778,1.956,8.44,1111122 
DISL,ioos:station:DISL:DISL:1,2018-11-10T06:30:00Z,30.2513,-88.0778,1.921,8.59,1111122 
DISL,ioos:station:DISL:DISL:1,2018-11-10T07:30:00Z,30.2513,-88.0778,1.846,8.6,1111122 
DISL,ioos:station:DISL:DISL:1,2018-11-10T08:30:00Z,30.2513,-88.0778,1.82,8.57,1111122 
DISL,ioos:station:DISL:DISL:1,2018-11-10T09:30:00Z,30.2513,-88.0778,1.745,8.66,1111122 
DISL,ioos:station:DISL:DISL:1,2018-11-10T10:30:00Z,30.2513,-88.0778,1.681,8.97,1111122 
DISL,ioos:station:DISL:DISL:1,2018-11-10T11:30:00Z,30.2513,-88.0778,1.659,8.86,1111122 
DISL,ioos:station:DISL:DISL:1,2018-11-10T12:30:00Z,30.2513,-88.0778,1.608,8.75,1111122 
DISL,ioos:station:DISL:DISL:1,2018-11-10T13:30:00Z,30.2513,-88.0778,1.564,8.79,1111122 
DISL,ioos:station:DISL:DISL:1,2018-11-10T14:30:00Z,30.2513,-88.0778,1.535,8.72,1111122 
DISL,ioos:station:DISL:DISL:1,2018-11-10T15:30:00Z,30.2513,-88.0778,1.49,8.63,1111122 
DISL,ioos:station:DISL:DISL:1,2018-11-10T16:30:00Z,30.2513,-88.0778,1.482,9.02,1111122 
DISL,ioos:station:DISL:DISL:1,2018-11-10T17:30:00Z,30.2513,-88.0778,1.499,8.59,1111122 
DISL,ioos:station:DISL:DISL:1,2018-11-10T18:30:00Z,30.2513,-88.0778,1.53,9.18,1111122 
DISL,ioos:station:DISL:DISL:1,2018-11-10T19:30:00Z,30.2513,-88.0778,1.549,9.24,1111122 
DISL,ioos:station:DISL:DISL:1,2018-11-10T20:30:00Z,30.2513,-88.0778,1.626,9.37,1111122 
DISL,ioos:station:DISL:DISL:1,2018-11-10T21:30:00Z,30.2513,-88.0778,1.667,9.32,1111122 
DISL,ioos:station:DISL:DISL:1,2018-11-10T22:30:00Z,30.2513,-88.0778,1.708,9.35,1111122 
DISL,ioos:station:DISL:DISL:1,2018-11-11T01:30:00Z,30.2513,-88.0778,1.869,6.63,1111122 
DISL,ioos:station:DISL:DISL:1,2018-11-11T02:30:00Z,30.2513,-88.0778,1.875,6.5,1111122 
DISL,ioos:station:DISL:DISL:1,2018-11-11T03:30:00Z,30.2513,-88.0778,1.934,6.46,1111122 
DISL,ioos:station:DISL:DISL:1,2018-11-11T04:30:00Z,30.2513,-88.0778,1.946,6.64,1111122 
DISL,ioos:station:DISL:DISL:1,2018-11-11T05:30:00Z,30.2513,-88.0778,1.979,9.02,1111122 
DISL,ioos:station:DISL:DISL:1,2018-11-11T06:30:00Z,30.2513,-88.0778,1.969,9.3,1111122 
DISL,ioos:station:DISL:DISL:1,2018-11-11T07:30:00Z,30.2513,-88.0778,1.95,8.82,1111122 
DISL,ioos:station:DISL:DISL:1,2018-11-11T08:30:00Z,30.2513,-88.0778,1.893,8.93,1111122 
DISL,ioos:station:DISL:DISL:1,2018-11-11T09:30:00Z,30.2513,-88.0778,1.845,9.0,1111122 
DISL,ioos:station:DISL:DISL:1,2018-11-11T10:30:00Z,30.2513,-88.0778,1.804,9.03,1111122 
DISL,ioos:station:DISL:DISL:1,2018-11-11T11:30:00Z,30.2513,-88.0778,1.768,8.9,1111122 
DISL,ioos:station:DISL:DISL:1,2018-11-11T12:30:00Z,30.2513,-88.0778,1.712,8.84,1111122 
DISL,ioos:station:DISL:DISL:1,2018-11-11T13:30:00Z,30.2513,-88.0778,1.679,8.91,1111122 
DISL,ioos:station:DISL:DISL:1,2018-11-11T14:30:00Z,30.2513,-88.0778,1.622,8.94,1111122 
DISL,ioos:station:DISL:DISL:1,2018-11-11T15:30:00Z,30.2513,-88.0778,1.59,9.05,1111122 
DISL,ioos:station:DISL:DISL:1,2018-11-11T16:30:00Z,30.2513,-88.0778,1.569,9.16,1111122 
DISL,ioos:station:DISL:DISL:1,2018-11-11T17:30:00Z,30.2513,-88.0778,1.571,9.14,1111122 
DISL,ioos:station:DISL:DISL:1,2018-11-11T18:30:00Z,30.2513,-88.0778,1.595,8.88,1111122 
DISL,ioos:station:DISL:DISL:1,2018-11-11T19:30:00Z,30.2513,-88.0778,1.621,8.24,1111122 
DISL,ioos:station:DISL:DISL:1,2018-11-11T20:30:00Z,30.2513,-88.0778,1.651,8.28,1111122 
DISL,ioos:station:DISL:DISL:1,2018-11-11T21:30:00Z,30.2513,-88.0778,1.709,8.41,1111122 
DISL,ioos:station:DISL:DISL:1,2018-11-11T22:30:00Z,30.2513,-88.0778,1.764,8.39,1111122 
DISL,ioos:station:DISL:DISL:1,2018-11-11T23:30:00Z,30.2513,-88.0778,1.814,7.36,1111122 
DISL,ioos:station:DISL:DISL:1,2018-11-12T00:30:00Z,30.2513,-88.0778,1.884,7.48,1111122 
DISL,ioos:station:DISL:DISL:1,2018-11-12T01:30:00Z,30.2513,-88.0778,1.925,6.99,1111122 
DISL,ioos:station:DISL:DISL:1,2018-11-12T02:30:00Z,30.2513,-88.0778,1.973,6.87,1111122 
DISL,ioos:station:DISL:DISL:1,2018-11-12T03:30:00Z,30.2513,-88.0778,2.044,6.86,1111122 
DISL,ioos:station:DISL:DISL:1,2018-11-12T04:30:00Z,30.2513,-88.0778,2.077,6.82,1111122 
DISL,ioos:station:DISL:DISL:1,2018-11-12T05:30:00Z,30.2513,-88.0778,2.108,6.89,1111122 
DISL,ioos:station:DISL:DISL:1,2018-11-12T06:30:00Z,30.2513,-88.0778,2.111,8.49,1111122 
DISL,ioos:station:DISL:DISL:1,2018-11-12T07:30:00Z,30.2513,-88.0778,2.122,9.55,1111122 
DISL,ioos:station:DISL:DISL:1,2018-11-12T08:30:00Z,30.2513,-88.0778,2.072,9.48,1111122 
DISL,ioos:station:DISL:DISL:1,2018-11-12T09:30:00Z,30.2513,-88.0778,2.058,9.28,1111122 
DISL,ioos:station:DISL:DISL:1,2018-11-12T10:30:00Z,30.2513,-88.0778,2.006,9.3,1111122 
DISL,ioos:station:DISL:DISL:1,2018-11-12T11:30:00Z,30.2513,-88.0778,1.948,9.25,1111122 
DISL,ioos:station:DISL:DISL:1,2018-11-12T12:30:00Z,30.2513,-88.0778,1.908,9.13,1111122 
DISL,ioos:station:DISL:DISL:1,2018-11-12T13:30:00Z,30.2513,-88.0778,1.867,8.07,1111122 